When you browse on this site, cookies collect data to enhance your experience and personalize the content and advertising you see.
Visit our Privacy Policy to learn more. By continuing to use the site, you agree to this use of cookies and data.
  • In Österreich
  • Länderverzeichnis
  • Für 7 Tage
  • Wassertemperatur
  • Satellitenkarten
  • Wetterkarte
  • News
  • Widgets
  • user-avatar
    Anmelden

    Stündliche Wetter Helenopol

    Heute, 21 März, Donnerstag

    Zeit Temperatur Niederschläge Wind Luftdruck Luftfeuchtigkeit
    00:00 +5°C° 0 mm 4 m/S 766 mmHg 67%
    01:00 +5°C° 0 mm 4 m/S 766 mmHg 68%
    02:00 +5°C° 0 mm 4 m/S 766 mmHg 73%
    03:00 +4°C° 0 mm 3 m/S 766 mmHg 78%
    04:00 +3°C° 0 mm 3 m/S 766 mmHg 82%
    05:00 +3°C° 0 mm 3 m/S 766 mmHg 85%
    06:00 +4°C° 0 mm 3 m/S 766 mmHg 88%
    07:00 +4°C° 0 mm 3 m/S 767 mmHg 90%
    08:00 +5°C° 0 mm 3 m/S 767 mmHg 87%
    09:00 +8°C° 0 mm 3 m/S 767 mmHg 84%
    10:00 +8°C° 0 mm 4 m/S 767 mmHg 80%
    11:00 +10°C° 0 mm 4 m/S 767 mmHg 78%
    12:00 +11°C° 0 mm 4 m/S 767 mmHg 76%
    13:00 +11°C° 0 mm 4 m/S 766 mmHg 74%
    14:00 +11°C° 0 mm 4 m/S 766 mmHg 74%
    15:00 +11°C° 0 mm 3 m/S 766 mmHg 75%
    16:00 +12°C° 0 mm 3 m/S 765 mmHg 75%
    17:00 +11°C° 0 mm 3 m/S 765 mmHg 77%
    18:00 +11°C° 0 mm 3 m/S 765 mmHg 80%
    19:00 +10°C° 0 mm 2 m/S 765 mmHg 82%
    20:00 +10°C° 0 mm 3 m/S 766 mmHg 84%
    21:00 +10°C° 0 mm 3 m/S 766 mmHg 85%
    22:00 +9°C° 0 mm 3 m/S 766 mmHg 87%
    23:00 +9°C° 0 mm 3 m/S 766 mmHg 88%

    Morgen, 22 März, Freitag

    Zeit Temperatur Niederschläge Wind Luftdruck Luftfeuchtigkeit
    00:00 +9°C° 0 mm 3 m/S 766 mmHg 90%
    01:00 +8°C° 0 mm 3 m/S 766 mmHg 91%
    02:00 +8°C° 0 mm 3 m/S 766 mmHg 92%
    03:00 +8°C° 0 mm 2 m/S 766 mmHg 92%
    04:00 +8°C° 0 mm 2 m/S 766 mmHg 92%
    05:00 +9°C° 0 mm 2 m/S 766 mmHg 93%
    06:00 +9°C° 0 mm 2 m/S 766 mmHg 93%
    07:00 +9°C° 0 mm 2 m/S 766 mmHg 94%
    08:00 +10°C° 0 mm 2 m/S 766 mmHg 88%
    09:00 +12°C° 0 mm 2 m/S 766 mmHg 82%
    10:00 +14°C° 0 mm 2 m/S 766 mmHg 76%
    11:00 +15°C° 0 mm 2 m/S 766 mmHg 72%
    12:00 +16°C° 0 mm 2 m/S 766 mmHg 68%
    13:00 +17°C° 0 mm 2 m/S 766 mmHg 63%
    14:00 +16°C° 0 mm 2 m/S 765 mmHg 64%
    15:00 +16°C° 0 mm 1 m/S 765 mmHg 65%
    16:00 +16°C° 0 mm 1 m/S 764 mmHg 65%
    17:00 +15°C° 0 mm 1 m/S 764 mmHg 72%
    18:00 +13°C° 0 mm 2 m/S 764 mmHg 78%
    19:00 +12°C° 0 mm 2 m/S 764 mmHg 85%
    20:00 +10°C° 0 mm 2 m/S 764 mmHg 87%
    21:00 +10°C° 0 mm 2 m/S 764 mmHg 89%
    22:00 +9°C° 0 mm 2 m/S 764 mmHg 91%
    23:00 +9°C° 0 mm 2 m/S 764 mmHg 92%

    übermorgen, 23 März, Samstag

    Zeit Temperatur Niederschläge Wind Luftdruck Luftfeuchtigkeit
    00:00 +9°C° 0 mm 2 m/S 764 mmHg 92%
    01:00 +9°C° 0 mm 2 m/S 764 mmHg 92%
    02:00 +9°C° 0 mm 2 m/S 763 mmHg 92%
    03:00 +8°C° 0 mm 2 m/S 763 mmHg 92%
    04:00 +8°C° 0 mm 2 m/S 762 mmHg 92%
    05:00 +8°C° 0 mm 2 m/S 762 mmHg 91%
    06:00 +9°C° 0 mm 2 m/S 762 mmHg 90%
    07:00 +9°C° 0 mm 2 m/S 762 mmHg 89%
    08:00 +11°C° 0 mm 3 m/S 762 mmHg 80%
    09:00 +13°C° 0 mm 3 m/S 762 mmHg 72%
    10:00 +16°C° 0 mm 3 m/S 761 mmHg 63%
    11:00 +17°C° 0 mm 3 m/S 761 mmHg 59%
    12:00 +18°C° 0 mm 3 m/S 761 mmHg 55%
    13:00 +19°C° 0 mm 4 m/S 760 mmHg 51%
    14:00 +19°C° 0 mm 4 m/S 760 mmHg 51%
    15:00 +19°C° 0 mm 3 m/S 760 mmHg 51%
    16:00 +19°C° 0 mm 3 m/S 760 mmHg 52%
    17:00 +17°C° 0 mm 3 m/S 760 mmHg 60%
    18:00 +15°C° 0 mm 4 m/S 760 mmHg 68%
    19:00 +13°C° 0 mm 4 m/S 761 mmHg 76%
    20:00 +12°C° 0 mm 4 m/S 761 mmHg 78%
    21:00 +10°C° 0 mm 4 m/S 762 mmHg 81%
    22:00 +8°C° 0 mm 4 m/S 762 mmHg 83%
    23:00 +7°C° 0 mm 4 m/S 762 mmHg 82%

    24 März, Sonntag

    Zeit Temperatur Niederschläge Wind Luftdruck Luftfeuchtigkeit
    00:00 +7°C° 0 mm 4 m/S 762 mmHg 81%
    01:00 +6°C° 0 mm 4 m/S 763 mmHg 80%
    02:00 +5°C° 0 mm 3 m/S 763 mmHg 77%
    03:00 +4°C° 0 mm 3 m/S 763 mmHg 73%
    04:00 +4°C° 0 mm 3 m/S 763 mmHg 70%
    05:00 +4°C° 0 mm 2 m/S 763 mmHg 70%
    06:00 +4°C° 0 mm 2 m/S 763 mmHg 69%
    07:00 +4°C° 0 mm 2 m/S 763 mmHg 69%
    08:00 +6°C° 0 mm 2 m/S 763 mmHg 63%
    09:00 +7°C° 0 mm 2 m/S 763 mmHg 57%
    10:00 +8°C° 0 mm 2 m/S 763 mmHg 51%
    11:00 +9°C° 0 mm 2 m/S 762 mmHg 47%
    12:00 +10°C° 0 mm 2 m/S 762 mmHg 44%
    13:00 +12°C° 0 mm 2 m/S 761 mmHg 40%
    14:00 +12°C° 0 mm 2 m/S 761 mmHg 40%
    15:00 +12°C° 0 mm 2 m/S 760 mmHg 39%
    16:00 +12°C° 0 mm 1 m/S 760 mmHg 39%
    17:00 +10°C° 0 mm 2 m/S 759 mmHg 42%
    18:00 +9°C° 0 mm 2 m/S 759 mmHg 46%
    19:00 +7°C° 0 mm 2 m/S 759 mmHg 50%
    20:00 +7°C° 0 mm 2 m/S 759 mmHg 51%
    21:00 +7°C° 0 mm 2 m/S 758 mmHg 51%
    22:00 +7°C° 0 mm 2 m/S 758 mmHg 52%
    23:00 +7°C° 0 mm 1 m/S 758 mmHg 53%

    25 März, Montag

    Zeit Temperatur Niederschläge Wind Luftdruck Luftfeuchtigkeit
    00:00 +7°C° 0 mm 1 m/S 757 mmHg 54%
    01:00 +7°C° 0 mm 1 m/S 757 mmHg 55%
    02:00 +6°C° 0 mm 1 m/S 757 mmHg 57%
    03:00 +6°C° 0 mm 1 m/S 756 mmHg 59%
    04:00 +4°C° 0 mm 2 m/S 756 mmHg 61%
    05:00 +4°C° 0 mm 2 m/S 756 mmHg 64%
    06:00 +4°C° 0 mm 2 m/S 756 mmHg 66%
    07:00 +3°C° 0 mm 3 m/S 756 mmHg 69%
    08:00 +5°C° 0 mm 4 m/S 756 mmHg 64%
    09:00 +6°C° 0 mm 5 m/S 756 mmHg 59%
    10:00 +8°C° 0 mm 6 m/S 756 mmHg 55%
    11:00 +8°C° 0 mm 7 m/S 755 mmHg 51%
    12:00 +9°C° 0 mm 7 m/S 755 mmHg 47%
    13:00 +9°C° 0 mm 8 m/S 754 mmHg 43%
    14:00 +7°C° 0.3 mm 8 m/S 754 mmHg 49%
    15:00 +7°C° 0.3 mm 9 m/S 753 mmHg 56%
    16:00 +6°C° 0.3 mm 9 m/S 753 mmHg 62%
    17:00 +5°C° 0.4 mm 9 m/S 753 mmHg 65%
    18:00 +4°C° 0.4 mm 8 m/S 753 mmHg 68%
    19:00 +3°C° 0.4 mm 7 m/S 753 mmHg 71%
    20:00 +2°C° 0 mm 7 m/S 753 mmHg 72%
    21:00 +2°C° 0 mm 6 m/S 753 mmHg 73%
    22:00 +1°C° 0 mm 6 m/S 753 mmHg 74%
    23:00 0°C° 0 mm 7 m/S 752 mmHg 74%

    26 März, Dienstag

    Zeit Temperatur Niederschläge Wind Luftdruck Luftfeuchtigkeit
    00:00 0°C° 0 mm 8 m/S 752 mmHg 74%
    01:00 0°C° 0 mm 8 m/S 751 mmHg 73%
    02:00 0°C° 0 mm 9 m/S 751 mmHg 73%
    03:00 -1°C° 0 mm 9 m/S 751 mmHg 73%
    04:00 -1°C° 0 mm 9 m/S 751 mmHg 73%
    05:00 -1°C° 0.2 mm 9 m/S 751 mmHg 70%
    06:00 -2°C° 0.2 mm 10 m/S 751 mmHg 68%
    07:00 0°C° 0.2 mm 10 m/S 752 mmHg 66%
    08:00 0°C° 0.1 mm 10 m/S 752 mmHg 63%
    09:00 0°C° 0.1 mm 10 m/S 753 mmHg 61%
    10:00 -1°C° 0.1 mm 11 m/S 754 mmHg 59%
    11:00 0°C° 0 mm 10 m/S 754 mmHg 57%
    12:00 +1°C° 0 mm 10 m/S 755 mmHg 54%
    13:00 +1°C° 0 mm 10 m/S 756 mmHg 52%
    14:00 +1°C° 0 mm 10 m/S 756 mmHg 52%
    15:00 +1°C° 0 mm 9 m/S 757 mmHg 53%
    16:00 +1°C° 0 mm 9 m/S 757 mmHg 54%
    17:00 0°C° 0 mm 8 m/S 758 mmHg 55%
    18:00 0°C° 0 mm 7 m/S 759 mmHg 56%
    19:00 -1°C° 0 mm 6 m/S 759 mmHg 57%
    20:00 -1°C° 0 mm 6 m/S 760 mmHg 59%
    21:00 -2°C° 0 mm 6 m/S 760 mmHg 62%
    22:00 -3°C° 0 mm 6 m/S 760 mmHg 64%
    23:00 -2°C° 0 mm 5 m/S 761 mmHg 66%
    Mehr zeigen